Location: Chmeln�
(49.6483°N, 14.9871°E)
Time: 07:30:47
(UTC+00:00)

Lacrosse 5 rocket - Pass Details

Date: 18 January 2021
Orbit: 465 x 630 km, 57.0° (Epoch: 04 March)

Event Time Altitude Azimuth Distance (km) Brightness Sun altitude
Exits shadow 03:52:46 26° 45° (NE) 1,052 3.1 -27.9°
Drops below altitude 10° 03:55:03 10° 75° (ENE) 1,718 4.8 -27.6°
Sets 03:57:20 0° 86° (E) 2,574 6.0 -27.2°
